Miscellaneous Local Product
Issued by NWS Hastings, NE

Home | Current Version | Previous Version | Graphics & Text | Print | Product List | Glossary On
Versions: 1 2 3 4 5 6 7 8 9 10 11 12 13 14 15 16 17 18 19 20 21 22 23 24 25 26 27 28 29 30 31 32 33 34 35 36 37 38 39 40 41 42 43 44 45 46 47 48 49 50
851
AXUS43 KGID 221502
MISGRI

GID CWA HOURLY WEATHER ROUNDUP
NATIONAL WEATHER SERVICE HASTINGS NE
1000 AM CDT WED MAR 22 2017

NOTE: "FAIR" INDICATES FEW OR NO CLOUDS BELOW 12,000 FEET WITH NO
SIGNIFICANT WEATHER AND/OR OBSTRUCTIONS TO VISIBILITY.

...SOUTH CENTRAL NEBRASKA...

CITY           SKY/WX    TMP DP  RH WIND       PRES   REMARKS
GRAND ISLAND   CLOUDY    35  24  64 SE13      30.34S WCI  26
HASTINGS       CLOUDY    36  23  59 SE13      30.33F WCI  27
KEARNEY        CLOUDY    37  21  52 SE18      30.30F WCI  27
ORD            CLOUDY    34  24  67 SE18      30.28F WCI  23
YORK           PTSUNNY   36  21  55 SE14      30.35F WCI  27
AURORA         CLOUDY    36  22  56 SE16      30.34F WCI  27
LEXINGTON      CLOUDY    37  24  59 SE14      30.28R WCI  28
HOLDREGE       CLOUDY    37  23  58 SE20      30.27F WCI  26
HEBRON         SUNNY     38  24  55 E13G18    30.35F WCI  30

...NEBRASKA PANHANDLE...

CITY           SKY/WX    TMP DP  RH WIND       PRES   REMARKS
CHADRON        CLOUDY    43  32  65 S17G32    29.97F
ALLIANCE       CLOUDY    36  31  82 S22G31    30.05S WCI  25
SCOTTSBLUFF    CLOUDY    43  28  55 SE15      30.03F
SIDNEY         CLOUDY    40  32  73 S26G33    30.08F WCI  29

...WESTERN AND NORTH CENTRAL NEBRASKA...

CITY           SKY/WX    TMP DP  RH WIND       PRES   REMARKS
VALENTINE      CLOUDY    34  26  72 S17G25    30.15F WCI  23
AINSWORTH      CLOUDY    32  29  90 S21G28    30.18S WCI  20
ONEILL         CLOUDY    32  27  81 SE15G23   30.28F WCI  22
BROKEN BOW     CLOUDY    35  27  72 S16G26    30.25F WCI  25
IMPERIAL       PTSUNNY   39  26  59 SE18G26   30.18F WCI  30
NORTH PLATTE   CLOUDY    38  23  55 SE14G21   30.21F WCI  30
MCCOOK         CLOUDY    38  25  59 SE15      30.25F WCI  29

...EASTERN NEBRASKA...

CITY           SKY/WX    TMP DP  RH WIND       PRES   REMARKS
NORFOLK        CLOUDY    30  22  72 SE15      30.37F WCI  19
SO SIOUX CITY  CLOUDY    31  19  61 SE14      30.43S WCI  21
TEKAMAH        CLOUDY    33  20  58 SE16      30.43S WCI  23
COLUMBUS       CLOUDY    36  19  51 SE10      30.40S WCI  28
ALBION         PTSUNNY   35  24  64 SE14      30.34  WCI  26
OMAHA EPPLEY   LGT RAIN  34  21  59 SE12      30.42F WCI  25
OFFUTT AFB     CLOUDY    33  22  61 E8        30.42S WCI  27
MILLARD        CLOUDY    35  24  62 E6        30.42S WCI  30
LINCOLN        MOSUNNY   39  20  46 SE10      30.41F WCI  32
NEBRASKA CITY  CLOUDY    36  14  40 E9        30.41R WCI  29
BEATRICE       SUNNY     39  22  49 E12       30.38S WCI  32
FALLS CITY     CLOUDY    39  20  46 E10       30.39R WCI  32

...NORTHERN KANSAS...

CITY           SKY/WX    TMP DP  RH WIND       PRES   REMARKS
GOODLAND       CLOUDY    40  31  70 S15       30.19S WCI  32
HILL CITY      CLOUDY    41  26  55 E8        30.28F
NORTON         CLOUDY    37  19  48 E10       30.26S WCI  30
PHILLIPSBURG   CLOUDY    39  27  60 E15       30.29F WCI  31
HAYS             N/A     43  25  49 E10       30.29R
RUSSELL        CLOUDY    43  25  49 E12       30.28R
CONCORDIA      MOSUNNY   41  25  53 E15       30.33S
SALINA         PTSUNNY   46  25  43 E10       30.32R
TOPEKA         MOSUNNY   45  24  43 E16       30.34R



USA.gov is the U.S. government's official web portal to all federal, state and local government web resources and services.